User: anonymous   Login
Location: Mount Tamalpais State Park
(37.9108°N, 122.6128°W)
Time: 14:32:47
(UTC-07:00)
Language:

Cosmos 1814 Rocket - Orbit

View from above orbital plane
View from above orbital plane
View from above satellite
View from above satellite

Ground track
Ground track

The orbit data is extracted from the following two-line orbital elements,

1 17304U 87006B   17228.42602926  .00000006  00000-0  10795-4 0  9999
2 17304  74.0608 339.9503 0029374 165.5913 194.6086 14.37606195601956
Epoch (UTC): 16 August 2017 10:13:28
Eccentricity: 0.0029374
inclination: 74.0608°
perigee height: 745 km
apogee height: 787 km
right ascension of ascending node: 339.9503°
argument of perigee: 165.5913°
revolutions per day: 14.37606195
mean anomaly at epoch: 194.6086°
orbit number at epoch: 60195

The dashed part of the orbit path shows where the satellite is in the earth's shadow,  

DLR